Location: Warner Observatory
(35.1353°N, 89.5455°W)
Time: 00:26:01
(UTC-05:00)

Amateur Radio Satellites - All Passes

Search period start: 25 March 2017 23:56
Search period end: 26 March 2017 23:56
Location: Warner Observatory, 35.1353°N, 89.5455°W

Satellite Date Start Highest point End Downlink Frequencies (MHz)
Time Altitude Azimuth
NANOSAT C BR1 25 Mar 23:59:54 00:03:08 21° 95° (E) 00:06:20 145.865
EO-79 26 Mar 00:03:40 00:07:13 26° 96° (E) 00:10:44 145.935-145.965
AIST 2D 26 Mar 00:08:27 00:11:54 59° 100° (E) 00:15:19 435.315
SPROUT 26 Mar 00:14:29 00:18:35 46° 74° (ENE) 00:22:42 437.525
FO-29 26 Mar 00:22:13 00:27:37 37° 292° (WNW) 00:32:33 435.910
50 SAT 26 Mar 00:22:20 00:25:31 36° 74° (ENE) 00:28:42 437.505
POLYITAN 1 26 Mar 00:31:03 00:35:14 57° 101° (E) 00:39:21 437.675
QB50P2 26 Mar 00:35:35 00:39:49 72° 101° (E) 00:44:01 145.880/145.840
DX 1 26 Mar 00:39:53 00:43:58 42° 72° (ENE) 00:48:03 434.975-435.025
DUCHIFAT 1 26 Mar 00:49:02 00:53:15 79° 102° (ESE) 00:57:25 145.980
VELOX 1 26 Mar 01:00:10 01:04:18 41° 261° (W) 01:08:30 145.980
BUGSAT 1 26 Mar 01:08:36 01:12:32 39° 99° (E) 01:16:22 437.445
SO-50 26 Mar 01:15:59 01:20:02 34° 247° (WSW) 01:24:03 436.795
UKube-1 26 Mar 01:21:19 01:25:37 89° 251° (WSW) 01:29:57 .
NANOSAT C BR1 26 Mar 01:35:16 01:38:46 26° 289° (WNW) 01:42:14 145.865
EO-79 26 Mar 01:39:35 01:42:48 21° 291° (WNW) 01:46:01 145.935-145.965
Oscar 19 26 Mar 01:43:48 01:48:16 29° 97° (E) 01:52:42 437.125/150
Gurwin Techsat 1B 26 Mar 01:52:42 01:56:28 19° 94° (E) 02:00:13 435.225
SPROUT 26 Mar 01:52:55 01:54:41 12° 268° (W) 01:56:29 437.525
POLYITAN 1 26 Mar 02:09:47 02:10:27 10° 295° (WNW) 02:11:07 437.675
DX 1 26 Mar 02:18:03 02:20:18 14° 267° (W) 02:22:33 434.975-435.025
O/OREOS (USA 219) 26 Mar 02:18:43 02:21:13 14° 58° (ENE) 02:23:41 437.305
BUGSAT 1 26 Mar 02:45:14 02:47:30 14° 293° (WNW) 02:49:44 437.445
BEESAT 26 Mar 02:45:38 02:50:15 51° 73° (ENE) 02:54:52 436.000
ITUPSAT 1 26 Mar 03:01:12 03:05:59 74° 76° (ENE) 03:10:46 437.325
AO-7 26 Mar 03:06:12 03:11:13 17° 93° (E) 03:16:12 .
MOZHAYETS 4 26 Mar 03:09:15 03:13:23 34° 72° (ENE) 03:17:30
Oscar 19 26 Mar 03:23:04 03:27:28 29° 291° (WNW) 03:31:52 437.125/150
ITAMSAT 1 26 Mar 03:29:20 03:33:38 26° 96° (E) 03:37:54 435.822/435.867
Gurwin Techsat 1B 26 Mar 03:31:32 03:36:33 44° 289° (WNW) 03:41:34 435.225
ISS 26 Mar 03:36:38 03:39:28 26° 34° (NE) 03:42:18 437.550
Tancredo 1 26 Mar 03:39:42 03:42:34 30° 36° (NE) 03:45:27 437.200
O/OREOS (USA 219) 26 Mar 03:56:26 04:00:54 51° 254° (WSW) 04:05:20 437.305
CUBESAT XI-V 26 Mar 04:00:43 04:03:53 19° 68° (ENE) 04:07:04 437.345
BEESAT 26 Mar 04:25:50 04:28:15 14° 267° (W) 04:30:41 436.000
KKS-1 26 Mar 04:31:35 04:35:57 58° 74° (ENE) 04:40:21 437.445
MOZHAYETS 4 26 Mar 04:47:16 04:50:34 19° 266° (W) 04:53:53
AO-7 26 Mar 04:56:24 05:04:43 83° 289° (WNW) 05:13:00 .
ITAMSAT 1 26 Mar 05:08:29 05:13:03 32° 291° (WNW) 05:17:35 435.822/435.867
STARS 26 Mar 05:09:27 05:13:49 67° 75° (ENE) 05:18:14 437.465
ISS 26 Mar 05:13:05 05:15:54 26° 229° (SW) 05:18:42 437.550
Tancredo 1 26 Mar 05:16:07 05:18:34 20° 230° (SW) 05:21:01 437.200
AO-85 26 Mar 05:18:43 05:20:14 12° 48° (NE) 05:21:46 145.980
CUBESAT XI-V 26 Mar 05:36:46 05:40:58 36° 262° (W) 05:45:11 437.345
M-CUBED/EXP-1 PRIME 26 Mar 05:43:15 05:46:15 25° 65° (ENE) 05:49:30 437.505
XW-2D 26 Mar 06:11:01 06:13:04 14° 94° (E) 06:15:06 145.860 - 145.880
KKS-1 26 Mar 06:12:04 06:12:49 10° 268° (W) 06:13:35 437.445
NUDT-PHONESAT 26 Mar 06:13:31 06:14:31 11° 93° (E) 06:15:31 437.300
XW-2B 26 Mar 06:16:38 06:19:01 16° 94° (E) 06:21:25 145.730 - 145.750
STRAND 1 26 Mar 06:17:06 06:19:31 13° 63° (ENE) 06:21:57 437.568
YUBILEINY 26 Mar 06:18:09 06:20:47 12° 77° (ENE) 06:23:25 435.215
KAITUO 1B 26 Mar 06:19:15 06:21:09 14° 94° (E) 06:23:03 145.475/437.950
XW-2C 26 Mar 06:26:18 06:29:16 22° 96° (E) 06:32:12 145.795 - 145.815
DOVE 4 26 Mar 06:28:56 06:33:59 42° 98° (E) 06:38:52 437.250
AO-7 26 Mar 06:51:35 06:56:14 16° 307° (NW) 07:00:53 .
CUTE-I 26 Mar 06:53:40 06:58:48 45° 99° (E) 07:03:53 437.470
NO-84 26 Mar 06:54:09 06:57:03 75° 131° (SE) 06:59:53 435.350 FM
AO-85 26 Mar 06:57:01 07:00:53 55° 244° (WSW) 07:04:55 145.980
XW-2F 26 Mar 07:18:01 07:21:43 71° 283° (WNW) 07:25:25 145.980 - 146.000
M-CUBED/EXP-1 PRIME 26 Mar 07:18:17 07:20:44 17° 262° (W) 07:23:18 437.505
LilacSat-2 26 Mar 07:18:28 07:22:12 64° 284° (WNW) 07:25:55 437.200
HO-68 26 Mar 07:30:52 07:36:32 25° 95° (E) 07:42:10 435.675
XW-2D 26 Mar 07:44:01 07:47:18 29° 287° (WNW) 07:50:34 145.860 - 145.880
NUDT-PHONESAT 26 Mar 07:45:11 07:48:34 36° 286° (WNW) 07:51:56 437.300
XW-2B 26 Mar 07:50:04 07:53:12 25° 288° (WNW) 07:56:19 145.730 - 145.750
KAITUO 1B 26 Mar 07:51:59 07:55:12 29° 287° (WNW) 07:58:26 145.475/437.950
STRAND 1 26 Mar 07:52:59 07:58:05 66° 258° (WSW) 08:03:13 437.568
BEESAT 3 26 Mar 07:58:02 08:02:01 59° 59° (ENE) 08:05:56 437.485
XW-2C 26 Mar 08:00:36 08:03:18 19° 290° (WNW) 08:05:59 145.795 - 145.815
SEEDS 26 Mar 08:02:05 08:05:25 23° 96° (E) 08:08:45 437.485
XW-2A 26 Mar 08:04:22 08:07:39 49° 99° (E) 08:10:54 145.665 - 145.685
YUBILEINY 26 Mar 08:07:19 08:16:03 79° 94° (E) 08:24:47 435.215
DOVE 4 26 Mar 08:07:21 08:11:16 21° 293° (WNW) 08:15:09 437.250
CUTE 1.7 + AOD 2 26 Mar 08:07:30 08:11:32 42° 99° (E) 08:15:32 437.475
BEESAT 2 26 Mar 08:12:47 08:16:28 32° 55° (NE) 08:20:06 435.950
CUTE-I 26 Mar 08:34:40 08:38:28 20° 294° (WNW) 08:42:14 437.470
JUGNU 26 Mar 08:34:57 08:38:16 15° 172° (S) 08:41:36 437.505
UWE-3 26 Mar 08:48:55 08:52:46 32° 97° (E) 08:56:30 435.000/436.395/437.385
FO-29 26 Mar 08:49:07 08:51:17 11° 58° (ENE) 08:53:26 435.910
HO-68 26 Mar 09:17:34 09:24:29 54° 290° (WNW) 09:31:24 435.675
CUBEBUG 2 26 Mar 09:21:27 09:25:45 57° 285° (WNW) 09:29:54 437.445
AAUSAT CUBESAT 2 26 Mar 09:22:34 09:26:43 77° 282° (WNW) 09:30:51 437.432
Oscar 11 26 Mar 09:23:46 09:27:44 35° 98° (E) 09:31:41 .
ZACube-1 26 Mar 09:30:22 09:34:31 57° 100° (E) 09:38:35 437.345
PCSat 26 Mar 09:34:29 09:39:41 51° 111° (ESE) 09:44:56 145.827
PRISM 26 Mar 09:36:23 09:40:21 56° 75° (ENE) 09:44:21 437.425
SEEDS 26 Mar 09:37:38 09:40:59 24° 289° (WNW) 09:44:20 437.485
CUTE 1.7 + AOD 2 26 Mar 09:44:52 09:46:57 14° 293° (WNW) 09:49:02 437.475
BEESAT 2 26 Mar 09:51:13 09:53:58 18° 250° (WSW) 09:56:42 435.950
AO-73 26 Mar 09:59:00 10:03:11 69° 284° (WNW) 10:07:16 145.935
TIGRISAT 26 Mar 10:07:34 10:12:10 57° 75° (ENE) 10:16:45 435.000
YUBILEINY 26 Mar 10:07:57 10:13:43 19° 292° (WNW) 10:19:32 435.215
UNISAT 6 26 Mar 10:17:31 10:22:13 81° 77° (ENE) 10:26:54 437.425
JUGNU 26 Mar 10:22:43 10:26:32 18° 182° (S) 10:30:23 437.505
UWE-3 26 Mar 10:26:05 10:28:56 18° 292° (WNW) 10:31:44 435.000/436.395/437.385
FO-29 26 Mar 10:27:18 10:35:04 66° 73° (ENE) 10:42:27 435.910
SRMSAT 26 Mar 10:37:38 10:40:32 14° 169° (SSE) 10:43:27 437.500
AIST 2D 26 Mar 10:41:15 10:43:01 13° 69° (ENE) 10:44:48 435.315
DELFI C3 26 Mar 10:45:11 10:49:11 79° 283° (WNW) 10:53:10 145.870
NANOSAT C BR1 26 Mar 10:50:43 10:52:03 11° 65° (ENE) 10:53:22 145.865
EO-79 26 Mar 10:54:08 10:56:20 14° 67° (ENE) 10:58:32 145.935-145.965
LO-87 26 Mar 10:54:22 10:54:57 10° 92° (E) 10:55:31 145.935 - 145.965
Oscar 11 26 Mar 11:00:50 11:03:33 17° 292° (WNW) 11:06:15 .
ZACube-1 26 Mar 11:10:05 11:10:14 10° 295° (WNW) 11:10:24 437.345
PCSat 26 Mar 11:19:20 11:23:21 21° 308° (NW) 11:27:23 145.827
POLYITAN 1 26 Mar 11:20:30 11:24:10 28° 71° (ENE) 11:27:51 437.675
QB50P2 26 Mar 11:24:52 11:28:45 34° 72° (ENE) 11:32:38 145.880/145.840
RS-15 26 Mar 11:37:23 11:47:09 31° 103° (ESE) 11:57:09 29.354- 29.394
DUCHIFAT 1 26 Mar 11:37:27 11:41:21 36° 72° (ENE) 11:45:15 145.980
ESTCUBE 1 26 Mar 11:39:56 11:43:32 23° 96° (E) 11:47:08 437.505/2401.250
TIGRISAT 26 Mar 11:47:24 11:49:07 12° 268° (W) 11:50:50 435.000
BUGSAT 1 26 Mar 11:55:40 11:58:38 19° 69° (ENE) 12:01:38 437.445
JUGNU 26 Mar 12:12:09 12:14:48 13° 192° (SSW) 12:17:28 437.505
AIST 2D 26 Mar 12:12:52 12:15:57 28° 263° (W) 12:19:03 435.315
FO-29 26 Mar 12:14:26 12:20:19 23° 267° (W) 12:26:04 435.910
NANOSAT C BR1 26 Mar 12:23:04 12:27:14 54° 260° (W) 12:31:25 145.865
SRMSAT 26 Mar 12:25:02 12:28:58 18° 179° (S) 12:32:55 437.500
LO-87 26 Mar 12:25:08 12:28:32 37° 286° (WNW) 12:31:54 145.935 - 145.965
EO-79 26 Mar 12:27:37 12:31:41 43° 261° (W) 12:35:47 145.935-145.965
VELOX 1 26 Mar 12:53:02 12:57:19 44° 99° (E) 13:01:34 145.980
POLYITAN 1 26 Mar 12:56:43 12:59:54 20° 265° (W) 13:03:07 437.675
Oscar 19 26 Mar 12:57:38 13:02:03 31° 69° (ENE) 13:06:29 437.125/150
QB50P2 26 Mar 13:01:52 13:04:35 16° 266° (W) 13:07:20 145.880/145.840
Gurwin Techsat 1B 26 Mar 13:10:39 13:14:48 24° 67° (ENE) 13:18:57 435.225
UKube-1 26 Mar 13:12:22 13:15:28 19° 95° (E) 13:18:33 .
DUCHIFAT 1 26 Mar 13:14:33 13:17:06 15° 266° (W) 13:19:38 145.980
ESTCUBE 1 26 Mar 13:16:28 13:20:16 27° 290° (WNW) 13:24:03 437.505/2401.250
50 SAT 26 Mar 13:22:10 13:25:40 66° 102° (ESE) 13:29:08 437.505
BUGSAT 1 26 Mar 13:30:01 13:33:44 30° 263° (W) 13:37:30 437.445
NO-84 26 Mar 13:31:22 13:32:39 12° 35° (NE) 13:33:59 435.350 FM
SPROUT 26 Mar 13:38:56 13:43:08 56° 285° (WNW) 13:47:18 437.525
RS-15 26 Mar 13:46:43 13:58:35 69° 302° (WNW) 14:10:58 29.354- 29.394
SO-50 26 Mar 13:48:27 13:50:59 14° 108° (ESE) 13:53:28 436.795
AO-7 26 Mar 14:02:16 14:07:56 21° 56° (NE) 14:13:35 .
DX 1 26 Mar 14:06:51 14:11:12 64° 285° (WNW) 14:15:31 434.975-435.025
SRMSAT 26 Mar 14:14:03 14:17:25 15° 189° (S) 14:20:47 437.500
VELOX 1 26 Mar 14:30:53 14:33:21 15° 294° (WNW) 14:35:48 145.980
Oscar 19 26 Mar 14:37:03 14:41:18 26° 264° (W) 14:45:35 437.125/150
ITAMSAT 1 26 Mar 14:44:06 14:48:36 30° 69° (ENE) 14:53:06 435.822/435.867
UKube-1 26 Mar 14:47:41 14:51:29 31° 289° (WNW) 14:55:17 .
Gurwin Techsat 1B 26 Mar 14:49:35 14:54:28 37° 262° (W) 14:59:24 435.225
BEESAT 26 Mar 14:50:06 14:53:06 16° 94° (E) 14:56:03 436.000
ITUPSAT 1 26 Mar 15:05:32 15:09:22 24° 96° (E) 15:13:10 437.325
NO-84 26 Mar 15:07:09 15:10:27 67° 229° (SW) 15:14:03 435.350 FM
SO-50 26 Mar 15:26:27 15:30:59 51° 302° (WNW) 15:35:30 436.795
AO-7 26 Mar 15:51:22 15:59:43 82° 253° (WSW) 16:08:05 .
RS-15 26 Mar 16:05:02 16:13:58 22° 329° (NNW) 16:23:03 29.354- 29.394
ITAMSAT 1 26 Mar 16:23:30 16:27:57 28° 263° (W) 16:32:27 435.822/435.867
BEESAT 26 Mar 16:26:32 16:31:01 42° 288° (WNW) 16:35:28 436.000
O/OREOS (USA 219) 26 Mar 16:26:50 16:30:34 26° 102° (ESE) 16:34:21 437.305
KKS-1 26 Mar 16:27:13 16:29:37 14° 93° (E) 16:32:01 437.445
ITUPSAT 1 26 Mar 16:43:02 16:47:08 29° 290° (WNW) 16:51:13 437.325
MOZHAYETS 4 26 Mar 16:43:51 16:48:22 65° 285° (WNW) 16:52:52
STARS 26 Mar 17:03:21 17:05:56 15° 94° (E) 17:08:31 437.465
DOVE 4 26 Mar 17:31:22 17:35:15 27° 69° (ENE) 17:39:22 437.250
CUBESAT XI-V 26 Mar 17:35:47 17:40:26 70° 101° (ESE) 17:45:05 437.345
AO-7 26 Mar 17:50:09 17:53:27 13° 269° (W) 17:56:47 .
XW-2F 26 Mar 17:55:47 17:59:09 31° 73° (ENE) 18:02:31 145.980 - 146.000
LilacSat-2 26 Mar 17:57:03 18:00:33 35° 74° (ENE) 18:04:03 437.200
HO-68 26 Mar 17:59:03 18:02:18 14° 56° (ENE) 18:05:33 435.675
KKS-1 26 Mar 18:02:06 18:06:21 43° 287° (WNW) 18:10:34 437.445
O/OREOS (USA 219) 26 Mar 18:06:10 18:09:53 24° 298° (WNW) 18:13:37 437.305
CUTE-I 26 Mar 18:12:09 18:17:22 55° 73° (ENE) 18:22:36 437.470
NUDT-PHONESAT 26 Mar 18:20:47 18:24:27 55° 75° (ENE) 18:28:07 437.300
XW-2D 26 Mar 18:21:15 18:25:03 76° 77° (ENE) 18:28:52 145.860 - 145.880
YUBILEINY 26 Mar 18:22:07 18:29:44 33° 74° (ENE) 18:37:18 435.215
PCSat 26 Mar 18:26:06 18:30:18 22° 53° (NE) 18:34:28 145.827
XW-2B 26 Mar 18:27:11 18:30:59 88° 77° (ENE) 18:34:49 145.730 - 145.750
RS-15 26 Mar 18:27:39 18:33:35 14° 7° (N) 18:39:28 29.354- 29.394
KAITUO 1B 26 Mar 18:28:04 18:31:47 71° 77° (ENE) 18:35:31 145.475/437.950
XW-2A 26 Mar 18:35:02 18:35:49 11° 68° (ENE) 18:36:36 145.665 - 145.685
XW-2C 26 Mar 18:37:24 18:41:11 65° 259° (W) 18:44:59 145.795 - 145.815
STARS 26 Mar 18:38:17 18:42:24 39° 288° (WNW) 18:46:30 437.465
SEEDS 26 Mar 18:52:51 18:53:56 11° 66° (ENE) 18:55:01 437.485
CUTE 1.7 + AOD 2 26 Mar 18:57:37 19:00:43 20° 70° (ENE) 19:03:50 437.475
M-CUBED/EXP-1 PRIME 26 Mar 18:57:55 19:02:17 38° 103° (ESE) 19:06:35 437.505
DOVE 4 26 Mar 19:09:02 19:12:51 26° 266° (W) 19:16:53 437.250
CUBESAT XI-V 26 Mar 19:16:26 19:17:10 10° 296° (WNW) 19:17:55 437.345
XW-2F 26 Mar 19:31:19 19:33:20 14° 266° (W) 19:35:21 145.980 - 146.000
LilacSat-2 26 Mar 19:33:17 19:34:55 12° 267° (W) 19:36:34 437.200
HO-68 26 Mar 19:41:47 19:48:56 83° 72° (ENE) 19:56:06 435.675
UWE-3 26 Mar 19:42:49 19:46:13 20° 69° (ENE) 19:49:36 435.000/436.395/437.385
CUTE-I 26 Mar 19:54:31 19:57:41 16° 267° (W) 20:00:51 437.470
XW-2A 26 Mar 20:05:02 20:08:12 34° 262° (W) 20:11:23 145.665 - 145.685
STRAND 1 26 Mar 20:06:45 20:11:46 55° 101° (E) 20:16:45 437.568
PCSat 26 Mar 20:08:43 20:13:54 47° 249° (WSW) 20:19:04 145.827
AAUSAT CUBESAT 2 26 Mar 20:09:17 20:13:09 42° 74° (ENE) 20:17:02 437.432
Tancredo 1 26 Mar 20:13:27 20:16:28 46° 134° (SE) 20:19:31 437.200
ISS 26 Mar 20:13:54 20:16:58 40° 133° (SE) 20:20:03 437.550
CUBEBUG 2 26 Mar 20:15:09 20:19:53 77° 76° (ENE) 20:24:38 437.445
Oscar 11 26 Mar 20:16:04 20:19:06 19° 69° (ENE) 20:22:10 .
YUBILEINY 26 Mar 20:18:28 20:26:38 48° 271° (W) 20:34:50 435.215
ZACube-1 26 Mar 20:22:39 20:26:39 31° 72° (ENE) 20:30:37 437.345
SEEDS 26 Mar 20:25:04 20:29:07 52° 260° (W) 20:33:12 437.485
CUTE 1.7 + AOD 2 26 Mar 20:32:48 20:36:22 27° 264° (W) 20:39:57 437.475
M-CUBED/EXP-1 PRIME 26 Mar 20:32:58 20:36:23 21° 296° (WNW) 20:39:49 437.505
RS-15 26 Mar 20:41:17 20:51:58 32° 41° (NE) 21:02:13 29.354- 29.394
AO-73 26 Mar 20:50:27 20:54:54 59° 75° (ENE) 20:59:19 145.935
AO-85 26 Mar 21:07:53 21:12:24 81° 299° (WNW) 21:16:38 145.980
UWE-3 26 Mar 21:18:09 21:22:24 34° 263° (W) 21:26:37 435.000/436.395/437.385
DELFI C3 26 Mar 21:27:29 21:31:02 34° 73° (ENE) 21:34:36 145.870
HO-68 26 Mar 21:33:37 21:37:18 15° 268° (W) 21:40:59 435.675
BEESAT 3 26 Mar 21:45:38 21:48:33 20° 111° (ESE) 21:51:30 437.485
AAUSAT CUBESAT 2 26 Mar 21:47:11 21:48:47 12° 268° (W) 21:50:23 437.432
STRAND 1 26 Mar 21:47:31 21:50:25 15° 296° (WNW) 21:53:20 437.568
Tancredo 1 26 Mar 21:50:38 21:52:46 17° 330° (NNW) 21:54:55 437.200
ISS 26 Mar 21:51:09 21:53:33 19° 329° (NNW) 21:55:59 437.550
Oscar 11 26 Mar 21:51:11 21:54:59 30° 263° (W) 21:58:50 .
ZACube-1 26 Mar 21:59:30 22:02:54 21° 265° (W) 22:06:17 437.345
BEESAT 2 26 Mar 22:03:26 22:04:46 11° 108° (ESE) 22:06:08 435.950
TIGRISAT 26 Mar 22:04:03 22:06:25 14° 93° (E) 22:08:44 435.000
UNISAT 6 26 Mar 22:13:31 22:16:48 20° 95° (E) 22:20:00 437.425
AO-73 26 Mar 22:30:29 22:31:25 11° 269° (W) 22:32:21 145.935
ESTCUBE 1 26 Mar 22:37:22 22:39:55 15° 67° (ENE) 22:42:29 437.505/2401.250
RS-15 26 Mar 22:53:33 23:05:45 78° 245° (WSW) 23:17:20 29.354- 29.394
PRISM 26 Mar 22:55:47 22:59:51 54° 286° (WNW) 23:03:55 437.425
LO-87 26 Mar 22:57:41 23:01:07 45° 75° (ENE) 23:04:35 145.935 - 145.965
DELFI C3 26 Mar 23:03:58 23:05:54 13° 267° (W) 23:07:52 145.870
BEESAT 3 26 Mar 23:22:37 23:25:58 26° 306° (NW) 23:29:22 437.485
FO-29 26 Mar 23:26:53 23:32:46 71° 102° (ESE) 23:38:03 435.910
BEESAT 2 26 Mar 23:38:16 23:42:04 46° 302° (WNW) 23:45:56 435.950
TIGRISAT 26 Mar 23:39:10 23:43:17 40° 287° (WNW) 23:47:17 435.000
AIST 2D 26 Mar 23:41:09 23:43:58 23° 96° (E) 23:46:48 435.315
VELOX 1 26 Mar 23:47:22 23:51:03 27° 70° (ENE) 23:54:44 145.980
